Weather History for KMBS - January, 2012

Change the Weather History Date:

Saturday, January 7, 2012

  Actual Average Record
Temperature  
Mean Temperature 37 °F 23 °F  
Max Temperature 42 °F 29 °F 59 °F (2008)
Min Temperature 32 °F 16 °F -11 °F (2014)
Degree Days  
Heating Degree Days 28    
Month to date heating degree days  
Since 1 July heating degree days  
Cooling Degree Days 0    
Month to date cooling degree days  
Year to date cooling degree days  
Moisture  
Dew Point 27 °F    
Average Humidity 73    
Maximum Humidity 85    
Minimum Humidity 60    
Precipitation  
Precipitation 0.00 in 0.06 in 0.37 in (1998)
Month to date precipitation 0.44  
Year to date precipitation 0.44  
Snow  
Snow 0.00 in - - ()
Month to date snowfall  
Since 1 July snowfall  
Snow Depth -    
Sea Level Pressure  
Sea Level Pressure 29.94 in    
Wind  
Wind Speed 8 mph (WNW)    
Max Wind Speed 17 mph    
Max Gust Speed 18 mph    
Visibility 10 miles    
Events      
T = Trace of Precipitation, MM = Missing Value Source: NWS Daily Summary

Daily Weather History Graph

Daily Weather History Graph

Search for Another Location

Airport or City:

Trip Planner

Search our weather history database for the weather conditions in past years. The results will help you decide how hot, cold, wet, or windy it might be!

Date:

Astronomy

Jan. 07, 2012 Rise Set
Actual Time 8:09 AM EST 5:15 PM EST
Civil Twilight 7:36 AM EST 5:48 PM EST
Nautical Twilight 7:01 AM EST 6:24 PM EST
Astronomical Twilight 6:26 AM EST 6:58 PM EST
Moon 3:58 PM EST (1/7) 6:40 AM EST (1/7)
Length of Visible Light 10h 11m
Length of Day
9h 06m
Waxing Gibbous, 97% of the Moon is Illuminated
Jan 7
Waxing Gibbous
Jan 9
Full
Jan 16
Last Quarter
Jan 23
New
Jan 30
First Quarter

Hourly Weather History & Observations

Time (EST) Temp. Windchill Dew Point Humidity Pressure Visibility Wind Dir Wind Speed Gust Speed Precip Events Conditions
12:53 AM 39.9 °F 35.1 °F 34.0 °F 79% 29.66 in 10.0 mi West 6.9 mph - N/A   Overcast
1:53 AM 37.9 °F 34.4 °F 33.1 °F 83% 29.66 in 10.0 mi West 4.6 mph - N/A   Overcast
2:53 AM 39.0 °F 36.8 °F 32.0 °F 76% 29.69 in 10.0 mi SW 3.5 mph - N/A   Overcast
3:53 AM 36.0 °F 31.1 °F 30.9 °F 82% 29.70 in 10.0 mi West 5.8 mph - N/A   Scattered Clouds
4:53 AM 33.1 °F 26.9 °F 28.0 °F 82% 29.70 in 10.0 mi West 6.9 mph - N/A   Clear
5:53 AM 33.8 °F 26.4 °F 28.4 °F 81% 29.72 in 10.0 mi West 9.2 mph - N/A   Clear
6:53 AM 32.0 °F 25.6 °F 28.0 °F 85% 29.76 in 10.0 mi West 6.9 mph - N/A   Clear
7:53 AM 33.1 °F 24.4 °F 28.9 °F 85% 29.78 in 10.0 mi West 11.5 mph - N/A   Partly Cloudy
8:53 AM 34.0 °F 25.5 °F 30.0 °F 85% 29.82 in 10.0 mi West 11.5 mph - N/A   Clear
9:53 AM 37.0 °F 28.9 °F 30.0 °F 76% 29.85 in 10.0 mi West 12.7 mph - N/A   Clear
10:53 AM 39.9 °F 32.5 °F 30.0 °F 68% 29.88 in 10.0 mi WNW 12.7 mph - N/A   Clear
11:53 AM 42.1 °F 33.9 °F 30.0 °F 62% 29.89 in 10.0 mi WNW 17.3 mph - N/A   Partly Cloudy
12:53 PM 41.0 °F 33.9 °F 28.9 °F 62% 29.91 in 10.0 mi NW 12.7 mph - N/A   Overcast
1:53 PM 39.0 °F 31.8 °F 28.0 °F 65% 29.94 in 10.0 mi WNW 11.5 mph - N/A   Overcast
2:53 PM 39.0 °F 31.8 °F 26.1 °F 60% 29.96 in 10.0 mi WNW 11.5 mph 18.4 mph N/A   Overcast
3:53 PM 37.9 °F 29.2 °F 25.0 °F 60% 30.01 in 10.0 mi NW 15.0 mph - N/A   Overcast
4:53 PM 35.6 °F 26.6 °F 24.8 °F 65% 30.03 in 10.0 mi NW 13.8 mph - N/A   Overcast
5:53 PM 34.0 °F 25.5 °F 23.0 °F 64% 30.09 in 10.0 mi NW 11.5 mph - N/A   Overcast
6:53 PM 34.0 °F 26.0 °F 21.9 °F 61% 30.12 in 10.0 mi NW 10.4 mph - N/A   Overcast
7:53 PM 33.1 °F 27.7 °F 21.9 °F 64% 30.14 in 10.0 mi NW 5.8 mph - N/A   Overcast
8:53 PM 32.0 °F 28.7 °F 24.1 °F 73% 30.15 in 10.0 mi WSW 3.5 mph - N/A   Overcast
9:50 PM 32.0 °F 28.7 °F 24.8 °F 75% 30.14 in 10.0 mi West 3.5 mph - N/A   Overcast
9:53 PM 32.0 °F - 25.0 °F 75% 30.16 in 10.0 mi Calm Calm - N/A   Overcast
10:50 PM 32.0 °F 27.5 °F 24.8 °F 75% 30.16 in 10.0 mi WNW 4.6 mph - N/A   Overcast
10:53 PM 32.0 °F 25.6 °F 25.0 °F 75% 30.18 in 10.0 mi WNW 6.9 mph - N/A   Overcast
11:11 PM 32.0 °F 26.4 °F 26.6 °F 80% 30.16 in 10.0 mi NNW 5.8 mph - N/A   Overcast
11:53 PM 32.0 °F 24.2 °F 24.1 °F 73% 30.19 in 10.0 mi NNW 9.2 mph - N/A   Overcast